Hourly Data Report for November 19, 2020

OTTAWA INTL A
ONTARIO
Current Station Operator: NAVCAN

45°19'00.000" N
75°40'00.000" W
114.90 m
6106001
71628
YOW

Download Data

Hourly Data (November 2020)
Hourly Data Report for November 19, 2020
TIME Temp Definition
°C
Dew Point Definition
°C
Rel Hum Definition
%
Wind Dir Definition
10's deg

Wind Spd Definition
km/h
Visibility Definition
km
Stn Press Definition
kPa
Hmdx Definition


Wind Chill Definition


Weather Definition


00:00 -5.8 -10.2 71 17 12 24.1 101.67   -11 LegendNANA
01:00 -5.2 -9.9 70 18 10 24.1 101.64   -10 Cloudy
02:00 -5.2 -9.5 72 16 9 24.1 101.61   -9 LegendNANA
03:00 -5.7 -9.3 76 12 9 24.1 101.54   -10 LegendNANA
04:00 -4.8 -8.6 75 13 14 24.1 101.44   -10 Mostly Cloudy
05:00 -4.5 -8.0 77 14 17 24.1 101.33   -10 LegendNANA
06:00 -4.3 -7.4 79 13 16 24.1 101.19   -10 LegendNANA
07:00 -4.3 -7.0 82 12 14 24.1 101.08   -9 Mostly Cloudy
08:00 -2.8 -6.2 78 12 16 24.1 100.92   -8 LegendNANA
09:00 -0.5 -5.8 68 14 11 24.1 100.89   -4 LegendNANA
10:00 1.3 -6.1 58 19 19 24.1 100.76     Mostly Cloudy
11:00 2.2 -6.3 53 19 18 24.1 100.66     LegendNANA
12:00 3.6 -5.6 51 17 13 24.1 100.52     LegendNANA
13:00 5.2 -4.8 48 18 18 24.1 100.40     Mostly Cloudy
14:00 7.4 -3.2 47 19 20 24.1 100.32     LegendNANA
15:00 7.8 -2.2 49 18 20 24.1 100.24     LegendNANA
16:00 7.1 -2.4 51 17 13 24.1 100.20     Mostly Cloudy
17:00 7.2 -2.4 50 17 12 24.1 100.22     LegendNANA
18:00 7.2 -2.2 51 17 9 24.1 100.24     LegendNANA
19:00 7.8 -1.5 52 18 13 24.1 100.22     Mostly Cloudy
20:00 8.0 -1.1 52 19 16 24.1 100.23     LegendNANA
21:00 7.4 -0.5 57 18 13 24.1 100.23     LegendNANA
22:00 7.1 0.0 60 19 8 24.1 100.26     Mostly Cloudy
23:00 6.7 0.1 63 18 9 24.1 100.19     LegendNANA

Notes on Data Quality.

Legend

  • E = Estimated
  • M = Missing
  • NA = Not Available*
  • [empty] = Indicates an unobserved value
Date modified: